GFSMA_850_thetae_159.txt.gz
Theta_e
344 345 344 347 344 344 347 347 345 347 346 346 347 348 347 346 345 345 347 344 344 344 345 344 342 342 338 341 343 343 343 342 341 341 341 343 343 343 342 342 340 342 345
348 345 346 345 343 346 345 346 349 346 344 343 345 347 346 345 346 347 347 348 348 347 344 345 343 341 341 339 342 342 342 339 341 340 341 342 342 340 339 340 342 345 345
351 346 345 348 345 348 347 347 347 344 342 343 345 346 346 345 346 348 349 348 350 350 347 345 343 343 343 340 339 339 338 338 339 341 339 338 339 339 342 344 345 345 345
351 349 349 348 345 347 345 345 346 343 343 343 343 344 345 344 346 348 348 349 350 351 352 346 344 343 342 337 340 341 340 339 338 337 341 341 341 343 345 344 345 345 344
349 348 349 346 350 345 345 346 343 345 343 342 341 341 343 343 347 344 347 350 351 352 355 348 345 343 339 339 340 341 340 338 336 339 342 343 345 345 344 345 345 344 343
350 348 347 350 351 344 345 350 348 346 346 342 341 341 343 344 344 344 346 347 349 350 353 355 353 349 341 340 342 341 338 336 337 340 343 344 344 344 345 344 344 342 341
350 344 349 346 347 349 349 343 350 343 343 343 343 342 342 343 343 345 346 347 347 348 353 353 354 354 352 345 344 342 340 337 338 339 341 342 343 343 344 342 337 332 339
349 349 347 346 348 349 346 351 350 352 347 346 349 343 341 343 342 342 345 346 345 347 351 351 354 350 354 354 346 344 342 339 337 338 340 341 342 340 337 332 330 328 333
349 350 350 347 346 341 350 348 347 349 352 347 346 350 347 347 343 347 346 345 345 348 349 353 352 354 352 355 351 345 344 342 338 337 338 339 338 336 333 330 324 319 318
348 350 350 343 340 348 348 350 349 350 349 347 349 342 342 343 346 343 348 348 348 347 346 349 350 353 353 354 349 345 343 343 340 337 336 337 336 334 332 326 316 313 313
349 348 350 351 349 348 347 346 354 345 351 348 348 349 347 344 345 342 340 341 351 349 348 347 350 351 351 352 351 348 343 344 344 340 337 336 335 333 331 318 313 312 311
349 348 349 350 351 352 344 345 353 355 346 351 347 349 345 343 345 348 344 345 345 343 346 347 349 351 352 352 350 344 343 343 344 343 339 338 336 331 323 316 314 312 310
345 347 344 351 350 347 351 349 349 350 354 352 351 347 350 347 344 344 346 343 348 347 348 345 347 349 349 353 352 346 344 344 344 344 342 340 340 334 325 320 317 314 311
343 347 351 349 349 351 351 350 349 345 348 351 354 354 351 349 345 346 346 346 345 344 347 351 350 351 350 350 350 346 344 345 345 344 343 341 341 340 335 331 327 322 317
345 345 343 348 349 348 348 351 350 349 347 354 353 352 348 348 349 349 347 348 347 344 343 345 344 351 350 349 349 348 350 346 345 344 343 342 341 341 340 338 335 332 327
345 347 348 349 350 348 352 351 347 350 347 350 350 348 350 349 348 346 345 346 346 347 345 343 342 348 351 345 352 348 348 345 344 344 343 343 342 341 341 340 339 339 335
349 349 347 351 349 350 351 350 350 345 349 352 349 349 350 350 348 346 344 344 344 345 344 343 346 348 348 348 347 346 346 345 344 344 344 344 343 342 341 340 339 338 337
347 348 350 348 348 350 350 349 350 348 350 348 349 351 351 349 350 352 348 346 344 344 346 348 347 347 348 350 350 348 349 349 347 345 343 344 344 343 342 340 340 338 337
348 348 349 349 351 351 350 350 350 350 349 349 351 349 347 349 347 349 348 350 351 350 350 350 348 350 349 350 351 348 349 350 347 346 343 343 342 343 343 342 340 339 337
350 349 349 348 350 350 350 350 351 350 350 350 351 350 347 350 349 349 347 347 347 347 349 349 349 349 351 350 346 346 348 347 349 348 345 343 342 342 342 341 341 341 339
350 349 349 348 349 350 348 348 349 351 351 352 351 347 348 350 350 349 349 348 348 350 351 347 347 348 346 348 348 346 350 349 349 347 345 343 342 338 338 339 339 338 332
349 349 349 349 349 349 347 346 348 352 352 349 351 351 351 349 347 346 347 345 343 344 345 346 348 346 346 349 347 347 344 346 347 347 347 341 331 329 327 332 336 332 324
351 350 350 350 349 349 348 348 347 347 349 349 349 348 350 349 350 351 350 350 345 345 344 344 344 345 346 347 346 345 345 345 345 344 345 344 339 334 332 331 331 325 314
350 351 350 350 349 350 349 350 349 348 349 349 349 349 349 349 350 346 346 349 349 346 345 343 342 344 345 343 345 344 343 343 343 342 343 342 341 336 334 331 325 320 316
347 349 351 351 351 349 348 348 348 348 349 347 348 348 349 348 349 345 344 343 343 342 343 341 342 343 344 344 344 342 342 343 344 343 341 341 341 335 329 327 325 322 318
347 348 348 347 348 349 349 348 343 342 348 347 348 347 345 343 343 342 343 343 342 343 343 342 344 345 344 344 343 343 342 342 342 342 340 336 334 331 328 327 325 323 319

GFSMA_850_thetae_162.txt.gz
Theta_e
342 344 346 343 346 342 347 347 345 348 344 346 347 347 346 345 346 347 347 348 347 345 344 344 342 341 338 341 343 342 343 342 341 339 340 341 342 341 340 340 340 343 345
345 345 343 346 343 345 343 346 346 346 346 345 346 348 346 345 343 346 348 349 350 350 346 344 343 342 340 340 338 337 336 335 339 339 340 339 338 338 341 341 344 345 345
348 341 346 343 344 348 348 345 346 345 343 344 345 346 346 345 348 345 350 349 349 351 350 344 342 342 336 338 339 340 340 340 339 337 340 340 339 342 343 344 345 345 343
337 342 348 347 340 341 343 343 347 344 343 343 344 345 346 344 344 348 348 349 349 350 353 346 343 340 338 340 341 340 339 338 337 342 341 342 343 345 344 345 344 343 342
351 349 343 339 348 350 348 346 343 345 343 343 343 343 344 343 345 346 345 349 351 352 353 344 344 341 339 341 341 338 336 336 338 342 344 345 344 344 344 344 343 341 341
348 349 334 344 349 350 351 344 345 345 346 343 343 342 343 344 344 344 346 347 350 352 353 348 351 348 347 342 343 341 337 336 338 341 343 343 343 343 343 342 339 337 335
342 348 348 342 347 349 347 348 350 345 341 343 342 342 342 342 343 345 346 346 346 348 352 349 352 350 350 350 345 343 341 337 337 339 340 341 341 341 339 335 330 326 321
348 343 349 349 347 350 343 338 350 350 348 345 340 350 348 344 344 345 345 346 345 348 352 355 351 350 351 351 348 343 343 339 336 336 337 338 337 335 332 327 319 317 327
348 345 348 346 347 341 350 344 341 349 351 348 345 347 348 330 337 335 344 347 348 348 351 351 353 348 349 352 350 345 343 343 339 336 336 337 335 333 332 322 315 315 317
348 351 345 343 343 339 349 351 343 349 350 338 346 348 346 341 341 343 347 344 336 344 347 349 352 352 347 353 350 347 343 344 343 339 336 336 334 332 330 317 313 312 312
348 348 349 348 345 339 348 344 351 352 345 350 350 347 344 349 346 346 338 343 342 339 343 346 347 353 349 351 349 344 344 343 344 342 339 338 336 331 322 317 315 313 311
344 345 349 345 347 345 350 345 343 346 342 340 345 345 347 350 348 345 342 345 346 343 343 344 348 352 353 349 349 348 345 344 344 343 341 340 340 335 327 322 319 315 312
348 346 345 343 341 343 346 346 349 346 347 345 343 340 340 348 347 347 345 343 350 346 346 343 342 348 349 351 349 349 346 344 344 344 342 341 340 340 336 332 328 324 320
346 349 347 346 344 347 348 346 343 346 341 346 349 346 338 347 349 350 350 346 348 341 347 347 349 350 349 348 348 344 344 344 345 344 343 342 340 340 340 339 338 336 331
346 348 347 347 346 348 342 349 348 345 348 346 350 349 346 341 344 350 347 344 347 349 347 347 346 352 351 348 349 349 341 343 345 344 344 343 342 341 341 340 340 340 340
348 346 351 346 344 347 348 348 345 346 349 346 348 351 349 352 348 350 347 346 347 349 346 343 345 349 349 347 347 346 345 346 343 344 344 344 343 343 342 341 340 340 339
342 348 348 349 348 347 345 346 343 346 346 349 346 345 347 347 347 339 344 346 346 347 345 348 348 349 347 349 348 348 345 343 344 345 345 343 343 343 343 342 340 339 339
344 345 332 348 345 347 348 349 346 348 348 346 341 348 342 349 350 350 349 349 345 347 347 345 346 343 341 349 350 348 349 351 349 348 347 346 343 343 342 342 341 339 338
343 342 347 346 340 339 341 346 344 342 344 348 348 350 346 347 348 344 346 347 345 348 345 349 349 348 342 348 350 350 347 345 345 345 345 346 345 342 341 342 341 340 339
346 343 346 347 347 344 346 346 346 345 345 346 346 344 347 347 343 344 346 346 346 342 342 343 346 346 346 350 349 348 345 345 346 346 347 347 345 344 342 339 340 340 339
346 347 346 346 347 346 347 345 346 347 346 347 347 347 347 347 347 348 347 347 346 344 343 344 346 344 343 343 344 345 346 346 348 348 346 343 344 344 342 339 337 337 337
347 347 347 346 347 345 348 348 348 348 347 346 345 346 346 346 346 345 345 349 351 348 346 343 343 344 343 343 344 345 344 342 343 346 347 344 343 342 336 335 336 335 332
346 347 348 347 347 347 347 348 347 347 346 348 346 347 345 344 348 350 350 350 350 348 346 345 345 343 343 344 344 345 344 342 344 344 347 345 341 337 334 331 332 327 322
346 346 346 348 347 348 348 346 347 349 348 346 346 348 347 346 347 346 346 342 343 343 343 343 344 343 341 340 339 343 343 342 343 342 344 344 342 334 331 327 325 324 327
348 348 348 349 349 349 348 347 346 350 348 347 345 344 343 345 346 345 344 344 342 342 343 342 342 342 340 341 343 344 343 344 342 342 344 343 343 338 329 326 326 327 324
346 346 345 346 346 348 348 347 345 344 346 343 342 347 348 347 345 342 342 343 343 343 343 342 342 342 340 342 343 342 342 342 342 343 342 339 336 332 329 328 324 326 322

GFSMA_850_thetae_165.txt.gz
Theta_e
340 342 335 345 344 345 346 346 344 345 347 347 346 346 346 346 346 347 345 349 350 346 344 343 341 340 339 340 341 339 338 339 340 339 339 340 341 340 339 340 341 344 344
343 343 345 345 345 345 346 347 341 345 345 346 346 347 345 342 345 346 347 348 350 351 345 343 341 335 336 335 336 336 336 337 339 339 338 338 338 339 341 344 344 344 344
344 344 343 345 346 345 346 345 345 346 346 343 341 345 344 345 345 347 347 348 349 351 351 343 340 337 339 339 339 338 337 336 335 339 340 339 341 343 344 344 344 343 341
342 340 342 343 345 344 346 342 343 346 346 343 342 346 345 344 345 348 345 346 349 349 350 344 340 339 341 340 337 336 336 336 338 340 342 343 344 343 343 343 342 338 337
338 336 339 344 343 344 342 345 345 344 345 343 344 344 345 344 345 347 346 348 350 350 349 348 345 339 341 343 341 338 336 337 339 342 343 342 342 343 342 340 336 333 330
336 335 335 343 346 345 343 346 343 344 344 344 344 343 342 344 343 344 345 346 349 352 350 346 351 351 349 344 343 342 337 335 337 339 340 340 340 340 338 334 331 329 327
345 331 338 342 345 345 348 339 342 342 340 341 342 344 346 342 343 343 343 345 348 349 351 352 348 349 348 349 346 343 341 336 335 336 338 338 338 335 331 328 321 317 320
341 345 338 344 348 349 344 342 343 344 347 346 345 347 343 342 342 338 338 343 346 348 349 352 348 345 343 350 347 345 343 341 336 335 335 335 334 332 331 320 315 314 314
340 346 343 349 347 346 349 345 344 347 347 349 345 345 346 336 335 331 339 341 343 346 346 349 350 349 345 345 347 345 342 343 341 337 336 335 333 332 326 316 314 312 313
335 335 347 343 340 342 341 347 347 347 347 339 344 343 347 343 339 339 339 337 339 337 339 344 342 348 348 347 348 343 344 342 343 339 338 337 334 329 320 317 314 312 311
342 345 347 342 337 340 340 340 349 346 343 344 336 340 340 339 343 345 343 341 341 344 337 342 344 348 349 349 346 348 344 343 343 341 339 339 339 332 326 322 318 315 312
347 343 347 346 338 339 342 345 343 349 345 344 339 344 343 347 347 345 344 341 345 344 342 341 345 346 350 350 347 348 345 343 343 343 341 340 340 339 334 332 329 325 321
346 342 345 346 341 339 345 344 342 338 340 341 342 346 344 342 345 348 348 348 348 343 346 345 342 346 350 350 350 345 347 343 343 343 342 341 340 340 339 338 336 335 330
344 346 344 345 343 343 343 342 341 340 338 344 342 342 343 338 345 348 348 345 344 344 348 347 347 342 343 350 347 347 344 341 343 344 343 342 341 340 340 339 339 338 338
347 348 348 346 347 344 343 344 347 344 345 347 346 349 345 347 350 347 346 346 347 347 347 347 348 348 349 348 347 346 345 346 344 342 343 343 342 342 341 341 340 339 338
348 346 349 348 346 346 347 345 344 345 347 348 346 344 349 349 350 350 348 346 348 347 345 349 347 349 350 347 346 346 347 346 343 342 343 343 343 343 343 342 341 340 339
345 346 345 347 348 344 346 346 348 344 344 347 349 347 347 348 346 346 342 342 344 345 345 344 344 346 346 346 347 347 347 347 344 345 346 346 345 343 343 342 342 341 340
346 346 346 348 346 344 344 347 345 346 343 343 343 344 347 344 343 345 349 348 345 343 345 343 344 348 349 345 346 349 348 345 344 344 345 345 346 344 342 341 341 341 340
346 345 344 345 344 338 340 349 344 341 341 345 344 347 346 346 346 348 348 343 347 346 342 342 339 345 348 347 345 347 348 347 345 344 345 345 345 346 344 342 340 338 339
344 344 344 344 344 339 339 341 339 341 342 343 343 343 345 344 345 346 344 343 344 346 344 342 342 343 344 344 343 344 345 345 345 345 346 345 343 339 341 342 341 338 337
343 343 343 341 341 345 345 344 345 345 345 345 345 345 346 347 344 345 347 348 346 344 346 345 344 342 341 342 343 343 344 346 346 345 341 340 343 340 338 342 340 337 336
347 344 344 346 345 344 344 345 344 345 345 346 345 345 344 346 344 347 344 345 347 350 350 348 347 345 342 342 343 343 345 344 343 341 339 343 346 345 343 340 336 333 332
346 348 346 345 345 346 347 347 346 347 348 347 346 347 347 344 344 344 349 349 349 347 345 344 343 344 344 344 343 342 344 343 343 342 343 343 344 343 341 338 332 330 325
346 346 346 345 346 345 344 344 345 345 347 347 347 346 346 344 345 345 350 349 348 346 342 343 343 342 343 343 342 342 343 343 343 343 343 343 343 342 338 333 326 324 324
346 345 345 346 346 346 344 344 345 345 345 347 348 347 345 345 345 343 342 343 343 343 343 342 342 342 341 341 343 342 342 344 344 343 343 340 341 337 329 323 324 326 325
347 346 345 345 345 346 346 345 345 344 344 344 345 345 344 342 344 345 345 344 342 343 342 342 342 342 342 343 343 342 342 341 340 342 342 340 337 332 327 325 326 325 325

GFSMA_850_thetae_168.txt.gz
Theta_e
339 334 336 342 344 345 345 344 344 345 345 342 345 345 345 345 345 343 343 347 345 344 343 341 340 338 339 339 338 337 336 337 338 338 338 339 340 339 339 340 342 344 344
341 337 339 344 345 345 346 346 344 343 345 344 343 345 345 345 345 344 345 345 350 346 343 341 336 336 337 337 338 338 338 338 338 337 338 338 338 340 341 343 344 343 342
343 342 344 345 345 343 344 345 346 347 346 346 343 345 344 345 345 347 345 344 349 351 345 341 338 339 339 338 338 337 336 335 337 339 339 341 342 343 343 343 343 341 340
340 343 344 344 344 344 347 346 346 344 346 343 343 345 345 345 345 345 346 346 345 350 344 342 338 340 341 340 337 335 335 336 339 340 342 343 343 342 342 342 341 336 335
342 342 340 343 345 342 345 342 343 346 344 344 343 344 344 345 345 345 345 345 348 347 348 346 344 344 343 343 342 337 335 336 338 339 340 341 341 341 340 337 331 327 327
341 338 340 343 344 341 344 344 344 344 345 343 342 344 343 343 343 344 344 344 347 346 347 351 350 349 349 347 342 342 336 335 337 338 338 339 339 336 331 326 320 318 327
336 336 338 342 343 343 344 342 342 343 343 343 343 344 345 343 343 341 341 343 346 346 346 345 345 348 348 348 344 342 342 337 335 335 336 336 333 332 330 320 316 315 319
338 334 337 342 342 343 346 343 340 342 339 341 345 344 344 341 335 341 338 341 346 346 346 345 345 343 344 347 344 343 342 342 338 335 334 334 333 331 325 316 314 313 315
339 336 334 342 346 347 344 342 340 339 348 344 343 344 342 334 334 331 340 342 344 346 345 346 346 346 344 343 348 345 342 342 341 338 336 335 333 328 318 316 314 312 313
342 336 340 344 346 347 345 345 339 337 346 344 345 344 340 343 338 341 340 338 336 342 338 337 339 346 345 344 345 345 343 342 342 339 339 339 335 326 321 318 315 313 312
343 339 337 340 344 343 341 341 346 340 344 343 338 342 342 337 339 345 343 343 341 342 340 340 342 341 346 346 344 345 345 343 343 342 339 339 339 332 328 327 322 318 316
343 342 339 337 337 337 336 337 339 345 345 341 343 341 340 342 344 345 345 344 345 345 343 343 342 344 346 348 347 346 347 344 343 343 342 340 339 338 336 335 335 332 328
345 345 343 342 341 336 337 338 342 341 344 344 338 336 339 340 342 345 346 345 343 345 345 346 344 343 345 347 347 347 345 342 343 343 343 341 340 339 338 338 338 338 338
342 344 343 341 343 341 339 339 339 340 340 340 343 338 337 342 341 346 346 345 344 344 346 349 346 344 339 344 343 346 346 345 343 344 344 343 342 341 340 340 339 339 338
345 345 344 345 344 344 343 344 343 338 340 342 345 345 348 343 343 346 347 346 345 346 343 347 347 348 346 346 345 346 345 346 345 344 344 344 343 342 342 341 341 340 339
347 346 346 346 347 346 343 347 344 347 344 342 345 347 348 347 349 349 348 346 346 346 346 347 347 347 348 348 347 346 346 347 345 343 343 343 342 342 342 342 341 340 339
345 346 346 346 348 346 345 347 345 344 345 344 346 346 344 344 345 347 346 343 346 345 344 345 345 345 345 345 345 345 347 346 344 344 345 346 346 345 343 342 341 340 340
343 345 345 345 349 347 344 344 347 345 347 342 343 343 347 347 344 344 346 345 346 345 345 343 343 344 344 349 346 342 344 344 345 344 344 344 344 344 344 344 342 339 338
344 343 345 346 345 345 346 345 342 344 347 346 344 344 344 344 345 342 345 346 345 344 346 343 341 340 339 343 345 347 343 344 346 345 345 344 344 345 345 344 343 342 339
345 345 345 346 344 345 345 342 338 346 344 338 342 341 345 345 346 344 341 344 344 343 344 346 343 342 342 344 346 344 343 344 344 345 345 345 344 342 342 339 338 341 339
342 343 343 344 344 344 344 342 341 339 340 341 342 343 342 343 343 346 345 344 344 347 346 346 347 346 343 342 342 343 343 344 345 346 345 345 342 339 343 341 341 341 338
343 342 342 341 342 344 342 340 342 344 343 344 345 345 345 345 345 344 343 344 345 346 347 348 348 346 343 344 344 343 343 345 345 345 343 342 340 339 343 344 342 338 335
343 343 343 343 343 344 346 344 344 344 345 344 345 346 345 346 344 343 344 344 345 347 348 347 345 343 342 343 344 344 343 342 345 344 342 342 343 343 343 343 339 332 326
339 339 341 344 345 344 343 345 345 344 345 345 346 346 346 346 345 345 345 345 346 347 347 346 344 342 342 342 342 342 342 342 342 342 342 343 343 342 342 337 334 326 324
339 341 341 340 345 344 344 346 346 345 345 344 345 345 346 346 346 345 343 342 343 343 343 344 344 342 342 342 342 342 343 342 343 342 341 342 342 340 335 330 325 324 323
335 339 338 337 343 344 344 343 343 343 343 343 343 344 346 347 345 343 343 342 342 342 342 341 343 342 342 342 342 341 341 340 340 339 339 339 336 335 330 329 326 324 324

GFSMA_850_thetae_171.txt.gz
Theta_e
330 333 336 339 340 343 345 344 343 345 344 343 344 344 344 343 343 343 344 344 342 343 342 340 339 338 338 338 336 336 335 336 338 339 339 339 339 339 339 340 342 343 343
331 332 335 341 345 345 345 345 344 344 345 344 345 345 345 345 343 343 343 342 345 343 342 339 337 337 337 338 338 338 338 338 337 337 338 338 338 340 341 343 343 343 342
336 342 342 343 344 344 344 344 346 346 345 344 342 343 344 344 344 345 344 344 344 347 342 339 338 340 339 337 336 336 337 336 338 339 339 341 342 343 343 343 342 341 339
338 341 343 344 343 343 345 343 344 343 345 343 343 342 342 344 344 344 344 346 345 346 343 339 339 341 342 341 338 335 336 338 340 341 342 342 342 342 341 340 337 331 331
339 343 343 343 342 344 347 343 343 345 344 344 344 343 344 343 345 344 344 344 347 345 347 345 342 343 343 343 341 336 335 337 338 339 340 340 340 340 337 330 323 323 327
340 342 341 340 343 342 342 343 345 344 344 343 342 343 344 343 343 343 343 344 347 345 345 346 345 348 346 344 342 341 337 335 335 336 337 338 337 332 329 320 317 319 336
340 341 337 340 342 340 341 344 343 344 342 343 342 342 344 343 343 342 339 343 345 345 344 341 341 347 347 347 344 342 342 339 336 334 335 333 332 331 324 317 316 316 321
338 335 336 341 342 343 342 342 341 342 343 342 344 343 343 343 338 337 339 341 344 344 344 344 345 342 342 346 344 342 341 341 339 337 334 334 332 329 320 316 314 314 315
339 339 334 342 342 342 343 343 341 340 342 342 342 343 344 340 335 334 338 343 343 343 343 344 345 346 343 342 347 343 342 341 341 338 338 338 334 327 320 317 315 313 312
342 339 337 337 341 345 344 345 344 340 339 344 344 344 344 341 339 343 340 338 340 339 341 337 340 342 347 342 342 345 343 342 342 340 338 338 337 329 325 322 318 315 314
340 342 338 337 339 344 345 342 341 343 337 345 343 340 343 340 337 344 343 342 342 341 343 342 339 340 345 346 344 343 346 344 342 342 341 339 338 336 334 331 328 325 323
342 341 337 335 339 342 342 341 339 343 342 341 340 341 338 336 342 344 344 344 343 345 344 344 342 340 343 346 346 345 344 347 343 343 342 341 339 338 337 337 336 336 334
343 341 344 341 339 339 340 337 336 336 337 341 345 340 340 342 341 340 341 344 344 343 344 346 345 344 344 345 346 345 345 344 344 343 343 342 341 340 339 338 338 338 337
343 342 343 344 343 344 344 341 339 338 342 341 342 342 339 337 340 339 341 345 345 344 344 346 346 346 343 340 345 345 346 345 345 344 344 343 342 341 340 340 340 339 338
342 343 344 345 345 341 345 343 340 343 343 341 339 345 345 343 344 340 343 345 346 346 344 343 342 343 346 345 344 345 344 345 345 345 345 344 343 342 341 341 341 340 339
345 344 344 345 343 343 344 344 341 345 344 343 343 346 345 346 345 344 346 347 346 346 346 346 346 346 345 348 347 346 345 346 346 345 343 343 342 341 342 342 341 341 340
343 343 343 345 342 343 344 345 343 344 345 346 345 345 346 345 346 348 348 348 345 345 345 344 345 344 344 344 344 345 344 345 345 345 344 344 344 345 344 343 342 340 338
343 344 344 346 347 346 346 346 344 344 345 344 345 343 344 347 347 346 345 346 346 344 344 344 344 344 343 343 345 347 342 342 343 345 344 344 344 345 345 344 343 342 340
344 344 344 342 345 345 345 347 346 343 343 342 342 344 343 342 342 344 343 343 345 346 345 345 345 344 342 341 342 343 343 344 343 343 345 345 344 344 345 344 344 343 339
341 343 343 343 341 343 344 347 345 343 343 339 343 343 340 342 343 344 345 344 344 345 345 343 344 345 343 343 344 344 345 343 343 343 344 344 345 344 344 344 343 341 337
342 341 342 342 342 342 343 344 344 345 342 338 343 342 339 341 342 345 341 343 346 345 345 345 346 345 346 346 344 343 342 343 343 343 343 344 344 344 343 339 341 342 340
342 343 341 341 342 342 342 343 342 344 342 342 341 341 342 343 341 341 344 343 342 343 346 346 344 346 345 343 342 344 344 343 343 343 344 344 344 343 343 340 339 341 336
335 341 342 341 341 341 341 341 343 343 342 342 344 343 343 344 343 344 345 343 342 342 342 342 342 344 343 341 342 342 343 343 343 342 343 343 342 342 341 340 340 339 332
342 342 340 342 344 341 341 342 342 342 344 344 344 344 343 344 344 345 344 344 344 343 343 344 346 345 343 342 341 341 342 342 342 341 341 342 342 341 340 339 338 334 326
343 344 338 341 340 341 342 343 343 343 344 343 344 345 345 345 346 344 345 345 344 343 342 342 342 342 343 343 342 342 342 340 341 341 342 340 339 339 337 334 331 327 324
342 342 340 340 339 337 340 340 344 342 343 343 343 342 344 343 344 345 345 346 344 343 343 342 341 342 343 343 341 341 340 338 339 338 338 338 338 337 331 329 327 324 323